[[{"header":{"parameterUnit":"m.s-1","parameterCategory":1,"la1":30.2991,"la2":30.254,"lo1":-89.0895,"lo2":-89.0444,"dy":0.0017,"dx":0.0017,"nx":28,"ny":28,"refTime":"2024-07-13T03:00:00:Z","depth":0,"parameterNumber":2,"parameterNumberName":"U-component_of_WINDS"},"data":[0,0,0,0,0,0,0,0,0,0,0,0,0,0,0,0,0,0,0,0,0,0,0,0,0,0,0,0,0,0,0,0,0,0,0,0,0,0,0,0,0,0,0,0,0,0,0,0,0,0,0,0,0,0,0,0,0,0,3.6703,3.6705,0,3.6825,3.6826,3.6828,3.6766,3.6763,3.676,3.6757,3.6884,3.689,3.6896,0,0,0,0,0,0,0,0,0,0,0,0,0,3.6419,3.6425,3.6703,3.6705,3.6706,3.6825,3.6826,3.6828,3.6767,3.6763,3.6759,3.6755,3.6882,3.6889,3.6897,0,0,0,0,0,0,0,0,0,0,0,0,0,3.6542,3.6427,3.6703,3.669,3.669,3.6824,3.6826,3.6828,3.6768,3.6763,3.6758,3.6754,3.6879,3.6889,3.6898,3.7053,0,0,3.6927,3.6931,0,0,0,0,0,0,0,0,3.6535,3.6553,3.669,3.6691,3.6691,3.6775,3.6773,3.6904,3.6769,3.6738,3.6757,3.6751,3.6852,3.6863,3.6897,3.7059,3.7064,3.6928,3.6934,3.6938,3.6941,0,0,0,0,0,0,0,3.6527,3.6547,3.6751,3.6692,3.6693,3.6678,3.6691,3.6797,3.6821,3.6741,3.6736,3.6752,3.6851,3.6888,3.6899,3.7066,3.6928,3.6936,3.6942,3.6946,3.736,3.7365,0,0,0,0,0,0,3.6519,3.654,3.6747,3.6755,3.66,3.6688,3.6701,3.6753,3.6819,3.6825,3.6756,3.6748,3.6874,3.6888,3.6904,3.7088,3.6938,3.6947,3.6952,3.7355,3.7361,3.7367,0,0,0,0,0,0,3.6513,3.6538,3.6742,3.6647,3.6671,3.6697,3.6757,3.6758,3.6795,3.683,3.6834,3.6788,3.6871,3.689,3.7016,3.7092,3.6951,3.696,3.7348,3.7357,3.7364,3.7459,0,0,0,0,0,0,3.6505,3.6536,3.6595,3.6648,3.6677,3.6853,3.6761,3.6764,3.6811,3.6803,3.6862,3.6868,3.6868,3.7002,3.7025,3.7102,3.6967,3.7342,3.7352,3.7361,3.745,3.747,3.7487,0,0,0,0,0,3.6495,3.6618,3.6598,3.6623,3.6751,3.6857,3.6873,3.6871,3.6817,3.6877,3.69,3.6866,3.708,3.7015,3.7041,3.7122,3.7337,3.7349,3.7361,3.7441,3.7466,3.7486,0,0,0,0,0,0,3.6574,3.6624,3.6603,3.6747,3.6798,3.6846,3.6921,3.6897,3.6965,3.6955,3.6949,3.6963,3.7093,3.712,3.7048,3.7275,3.72,3.7218,3.7253,3.7276,3.7294,3.7285,3.6975,0,0,0,0,0,3.6607,3.6689,3.6729,3.6852,3.6878,3.6896,3.6942,3.6935,3.6988,3.701,3.7042,3.7095,3.7174,3.7227,3.7302,3.7453,3.7465,3.7522,3.754,3.7555,3.7571,3.7652,3.7677,3.7406,3.7406,3.7405,0,0,3.6679,3.6716,3.6768,3.6869,3.6907,3.6992,3.6914,3.7008,3.707,3.7024,3.7144,3.717,3.7229,3.7368,3.7431,3.7395,3.7648,3.757,3.7582,3.7589,3.7667,3.7692,3.7715,3.7414,3.7412,3.7411,0,0,3.6851,3.6888,3.6994,3.7034,3.7093,3.7104,3.7129,3.7182,3.7196,3.7316,3.7283,3.7358,3.7495,3.7538,3.7578,3.7766,3.7737,3.779,3.7888,3.7967,3.7988,3.8007,3.8074,3.8098,3.7805,3.7806,3.7806,0,3.6933,3.7058,3.7052,3.7147,3.7192,3.7153,3.726,3.73,3.7381,3.7413,3.7371,3.754,3.7578,3.7726,3.7771,3.7805,3.7834,3.7784,3.7986,3.8004,3.8022,3.8085,3.8111,3.7812,3.7811,3.781,3.781,0,3.7155,3.7242,3.7321,3.7399,3.7452,3.7553,3.7562,3.7618,3.7606,3.7621,3.7744,3.7787,3.7869,3.7904,3.7895,3.8051,3.8026,3.7985,3.791,3.8054,3.8113,3.8138,3.782,3.7818,3.7816,3.7815,0,0,3.7381,3.7453,3.7482,3.7516,3.7578,3.7646,3.7745,3.7825,3.7872,3.7929,3.8012,3.8128,3.809,3.8135,3.813,3.8199,3.8345,3.815,3.8151,3.8184,3.8519,3.8549,3.8577,3.8326,3.833,3.8334,3.8514,0,3.7558,3.773,3.7727,3.7887,3.7967,3.7931,3.8017,3.8064,3.8081,3.8152,3.817,3.8252,3.8196,3.8223,3.829,3.8313,3.8412,3.83,3.8403,3.8407,3.8389,3.8609,3.8641,3.8809,3.8537,3.8541,3.8544,0,3.7787,3.785,3.8018,3.8067,3.8101,3.8178,3.825,3.8318,3.8371,3.8378,3.8428,3.8412,3.8512,3.8434,3.8573,3.8497,3.8539,3.8556,3.8562,3.8572,3.8484,3.8624,3.8862,3.8887,3.858,3.8578,3.8575,0,3.7935,3.8062,3.8178,3.8209,3.8269,3.8324,3.8352,3.84,3.8448,3.8511,3.8542,3.8616,3.8657,3.8716,3.872,3.8662,3.8859,3.8782,3.8868,3.8868,3.8911,3.8908,3.9159,3.8939,3.8939,3.8938,3.8938,0,3.8132,3.8236,3.8245,3.8317,3.8432,3.8427,3.8542,3.8564,3.8607,3.8683,3.8656,3.8728,3.8729,3.8803,3.8807,3.892,3.8939,3.8948,3.8948,3.895,3.8949,3.8978,3.8966,3.8945,3.8943,3.8942,3.8941,0,3.8317,3.8327,3.8452,3.8498,3.8512,3.8595,3.8634,3.8703,3.8716,3.8812,3.8834,3.8856,3.8941,3.895,3.905,3.9052,3.9189,3.9177,3.9171,3.9169,3.9255,3.9246,3.9533,3.957,3.9325,3.9328,3.933,0,3.8443,3.8521,3.8575,3.8623,3.8654,3.8732,3.878,3.8778,3.8829,3.8895,3.8955,3.9037,3.9102,3.9239,3.9264,3.934,3.9329,3.9424,3.934,3.934,3.933,3.9325,3.9332,3.944,3.9443,3.9445,3.9447,0,3.8664,3.8664,3.8734,3.8806,3.8863,3.892,3.8973,3.9014,3.9018,3.9077,3.9163,3.9213,3.9314,3.9395,3.9469,3.9498,3.9474,3.9473,3.9497,3.95,3.9493,3.9498,3.9215,3.9467,3.9465,3.9463,3.9462,3.9461,3.8823,3.889,3.8939,3.9017,3.9056,3.9106,3.9172,3.9193,3.9264,3.9344,3.9339,3.9433,3.9483,3.958,3.9615,3.9689,3.9657,3.9692,3.9701,3.9709,3.9718,3.9482,3.9702,3.9702,3.9701,3.9701,3.97,0,3.9042,3.9071,3.9142,3.9216,3.9278,3.9248,3.9305,3.9358,3.9441,3.949,3.9554,3.9652,3.9731,3.9761,3.9838,3.9891,3.9882,3.9912,3.9908,3.9915,3.9742,3.9713,3.9918,3.9918,3.9918,3.9918,3.9918,3.9918,3.9163,3.9276,3.9282,3.9414,3.9442,3.9534,3.9569,3.9614,3.9653,3.9763,3.9827,3.9846,3.9887,3.9967,4.0038,4.0044,4.0074,4.0109,4.0111,3.9949,3.9927,3.9906,3.9879,4.0115,4.0115,4.0277,4.0279,4.028]},{"header":{"parameterUnit":"m.s-1","parameterCategory":1,"la1":30.2991,"la2":30.254,"lo1":-89.0895,"lo2":-89.0444,"dy":0.0017,"dx":0.0017,"nx":28,"ny":28,"refTime":"2024-07-13T03:00:00:Z","depth":0,"parameterNumber":3,"parameterNumberName":"V-component_of_WINDS"},"data":[0,0,0,0,0,0,0,0,0,0,0,0,0,0,0,0,0,0,0,0,0,0,0,0,0,0,0,0,0,0,0,0,0,0,0,0,0,0,0,0,0,0,0,0,0,0,0,0,0,0,0,0,0,0,0,0,0,0,-0.0285,-0.0286,0,-0.0291,-0.0291,-0.0291,-0.0313,-0.0314,-0.0314,-0.0315,-0.0319,-0.0319,-0.0318,0,0,0,0,0,0,0,0,0,0,0,0,0,-0.0294,-0.0293,-0.0285,-0.0286,-0.0286,-0.0291,-0.0291,-0.0291,-0.0313,-0.0314,-0.0314,-0.0315,-0.0319,-0.0319,-0.0318,0,0,0,0,0,0,0,0,0,0,0,0,0,-0.0294,-0.0293,-0.0285,-0.0297,-0.0298,-0.0291,-0.0291,-0.0291,-0.0313,-0.0314,-0.0315,-0.0315,-0.0319,-0.0319,-0.0318,-0.0299,0,0,-0.0317,-0.0316,0,0,0,0,0,0,0,0,-0.0294,-0.0293,-0.0296,-0.0296,-0.0298,-0.0302,-0.0296,-0.0294,-0.0313,-0.0307,-0.0315,-0.0316,-0.0313,-0.0313,-0.0312,-0.03,-0.03,-0.0317,-0.0316,-0.0316,-0.0316,0,0,0,0,0,0,0,-0.0294,-0.0293,-0.0288,-0.0296,-0.0297,-0.0302,-0.0303,-0.0295,-0.0306,-0.0308,-0.031,-0.031,-0.0314,-0.0313,-0.0312,-0.03,-0.0317,-0.0316,-0.0316,-0.0316,-0.0273,-0.0272,0,0,0,0,0,0,-0.0292,-0.0293,-0.0287,-0.0288,-0.0298,-0.0301,-0.0302,-0.03,-0.0306,-0.0307,-0.0309,-0.0311,-0.0313,-0.0313,-0.0313,-0.0291,-0.0316,-0.0315,-0.0315,-0.0273,-0.0272,-0.0272,0,0,0,0,0,0,-0.0292,-0.0291,-0.0287,-0.0291,-0.0291,-0.03,-0.0298,-0.03,-0.0299,-0.0307,-0.0309,-0.0306,-0.0314,-0.0313,-0.0303,-0.0291,-0.0315,-0.0315,-0.0274,-0.0273,-0.0272,-0.0247,0,0,0,0,0,0,-0.0292,-0.0291,-0.0284,-0.0291,-0.0291,-0.0277,-0.0297,-0.0299,-0.0298,-0.03,-0.0305,-0.0306,-0.0314,-0.0303,-0.0302,-0.0291,-0.0314,-0.0275,-0.0274,-0.0272,-0.0249,-0.0245,-0.0242,0,0,0,0,0,-0.0293,-0.0277,-0.0284,-0.0283,-0.0282,-0.0276,-0.0276,-0.0286,-0.0297,-0.029,-0.0295,-0.0306,-0.0293,-0.0302,-0.0301,-0.0289,-0.0276,-0.0274,-0.0272,-0.0251,-0.0246,-0.0242,0,0,0,0,0,0,-0.0268,-0.0278,-0.0286,-0.0271,-0.0273,-0.028,-0.0271,-0.0281,-0.028,-0.0282,-0.0294,-0.0295,-0.0282,-0.0285,-0.0295,-0.0272,-0.0286,-0.0284,-0.027,-0.0266,-0.0263,-0.0262,-0.0314,0,0,0,0,0,-0.0261,-0.0256,-0.0265,-0.0251,-0.0252,-0.0262,-0.026,-0.0267,-0.0269,-0.027,-0.0275,-0.0276,-0.0272,-0.0269,-0.0266,-0.025,-0.0251,-0.0242,-0.0238,-0.0235,-0.0233,-0.0225,-0.022,-0.0266,-0.0266,-0.0266,0,0,-0.0246,-0.0251,-0.0247,-0.0246,-0.0249,-0.0243,-0.0262,-0.0255,-0.0251,-0.0269,-0.0259,-0.0263,-0.0265,-0.0251,-0.0246,-0.0253,-0.0221,-0.0233,-0.0231,-0.023,-0.0222,-0.0218,-0.0214,-0.0264,-0.0265,-0.0265,0,0,-0.0216,-0.0219,-0.0209,-0.0211,-0.0214,-0.0221,-0.0219,-0.0225,-0.0228,-0.0218,-0.0232,-0.0227,-0.0221,-0.0222,-0.0222,-0.0194,-0.0203,-0.0192,-0.0174,-0.0166,-0.0162,-0.0159,-0.0149,-0.0145,-0.019,-0.019,-0.019,0,-0.0197,-0.0189,-0.0202,-0.0194,-0.0194,-0.0211,-0.02,-0.0201,-0.0203,-0.0202,-0.0211,-0.0204,-0.0206,-0.0194,-0.0187,-0.0186,-0.0184,-0.0191,-0.0162,-0.0159,-0.0156,-0.0146,-0.0142,-0.0189,-0.0189,-0.0189,-0.0189,0,-0.0166,-0.0161,-0.0151,-0.0154,-0.0152,-0.0143,-0.0154,-0.0151,-0.0159,-0.0165,-0.0156,-0.016,-0.0158,-0.0156,-0.0164,-0.0144,-0.0149,-0.0159,-0.0174,-0.015,-0.0141,-0.0138,-0.0187,-0.0187,-0.0188,-0.0188,0,0,-0.0119,-0.0129,-0.0126,-0.0127,-0.0133,-0.0129,-0.0121,-0.012,-0.0117,-0.0118,-0.0112,-0.0106,-0.0116,-0.0116,-0.0124,-0.0117,-0.0095,-0.0129,-0.0129,-0.0122,-0.0074,-0.0065,-0.0061,-0.0102,-0.0101,-0.0101,-0.0073,0,-0.009,-0.0077,-0.0089,-0.0073,-0.0068,-0.0085,-0.0078,-0.0081,-0.0086,-0.0083,-0.0089,-0.0085,-0.0099,-0.0099,-0.0093,-0.0099,-0.0085,-0.0101,-0.0095,-0.0095,-0.0093,-0.0056,-0.0047,-0.0021,-0.007,-0.0069,-0.0069,0,-0.0055,-0.0055,-0.0039,-0.0047,-0.0045,-0.0039,-0.0039,-0.0036,-0.0039,-0.0044,-0.0044,-0.0055,-0.0047,-0.0063,-0.0053,-0.0063,-0.0062,-0.0065,-0.0064,-0.0063,-0.008,-0.0054,-0.0013,-0.0008,-0.0064,-0.0064,-0.0064,0,-0.0022,-0.0018,-0.0009,-0.0009,-0.0018,-0.0013,-0.0016,-0.0021,-0.002,-0.002,-0.0019,-0.0019,-0.0018,-0.0017,-0.0028,-0.0038,-0.0016,-0.0032,-0.002,-0.0019,-0.0013,-0.0013,0.0029,-0.0014,-0.0014,-0.0014,-0.0014,0,0.0012,0.0022,0.0006,0.0012,0.0023,0.001,0.0021,0.0016,0.0012,0.0017,0.0002,0.0007,-0.0007,-0.0003,-0.0011,-0.0002,-0.0002,-0.0005,-0.0007,-0.0003,-0.0003,-0.0002,-0.0004,-0.0013,-0.0013,-0.0013,-0.0013,0,0.0051,0.004,0.005,0.0041,0.0039,0.0047,0.0039,0.0045,0.0037,0.0044,0.0045,0.0034,0.0037,0.0026,0.0028,0.0022,0.0037,0.0031,0.0038,0.0036,0.005,0.0049,0.0095,0.0101,0.0054,0.0054,0.0055,0,0.0074,0.0081,0.0073,0.0074,0.0072,0.0075,0.0076,0.0063,0.0064,0.006,0.0066,0.0068,0.0068,0.0074,0.0066,0.0067,0.0062,0.0078,0.0063,0.0066,0.0063,0.0063,0.0064,0.0082,0.0083,0.0083,0.0083,0,0.0115,0.0109,0.0111,0.011,0.0111,0.011,0.0109,0.0111,0.0097,0.0099,0.0102,0.0102,0.0103,0.0105,0.0104,0.0101,0.009,0.0088,0.0091,0.0096,0.0099,0.0098,0.0047,0.0088,0.0087,0.0087,0.0087,0.0086,0.0147,0.0153,0.0147,0.0149,0.0146,0.0145,0.0149,0.0142,0.0144,0.0143,0.0135,0.014,0.0135,0.0133,0.013,0.0133,0.0126,0.0131,0.0132,0.0133,0.0136,0.0098,0.0133,0.0133,0.0133,0.0133,0.0133,0,0.0188,0.0183,0.0185,0.0183,0.0184,0.0172,0.0169,0.0172,0.0175,0.0172,0.0173,0.0176,0.0177,0.0169,0.0169,0.0174,0.0168,0.0174,0.0174,0.0174,0.0142,0.014,0.0178,0.0178,0.0178,0.0178,0.0178,0.0178,0.021,0.0219,0.0212,0.0219,0.0214,0.0218,0.0217,0.0216,0.0213,0.0216,0.0217,0.0212,0.0206,0.0206,0.0207,0.0204,0.0206,0.0213,0.0209,0.018,0.0176,0.0172,0.0169,0.0213,0.0213,0.024,0.024,0.0241]}]]